Location: Altenhof
(50.2418°N, 10.8789°E)
Time: 17:03:20
(UTC+00:00)

Cosmos 1943 - Pass Details

Date: 18 February 2020
Orbit: 832 x 852 km, 71.0° (Epoch: 05 April)

Event Time Altitude Azimuth Distance (km) Brightness Sun altitude
Rises 04:45:18 0° 199° (SSW) 3,365 6.1 -16.3°
Reaches altitude 10° 04:47:44 10° 197° (SSW) 2,436 5.4 -15.9°
Maximum altitude 04:53:16 69° 115° (ESE) 893 3.5 -15.0°
Drops below altitude 10° 04:58:53 10° 33° (NNE) 2,462 6.0 -14.1°
Sets 05:01:21 0° 31° (NNE) 3,404 6.8 -13.7°
